TimeAKDT,TemperatureF,Dew PointF,Humidity,Sea Level PressureIn,VisibilityMPH,Wind Direction,Wind SpeedMPH,Gust SpeedMPH,PrecipitationIn,Events,Conditions,WindDirDegrees,DateUTC
12:54 AM,43.0,37.9,82,29.98,10.0,ESE,6.9,-,N/A,,Scattered Clouds,120,2012-10-03 08:54:00
1:54 AM,45.0,39.0,80,29.99,10.0,ESE,6.9,-,N/A,,Mostly Cloudy,110,2012-10-03 09:54:00
2:54 AM,46.0,39.0,76,29.99,10.0,ESE,6.9,-,N/A,,Overcast,110,2012-10-03 10:54:00
3:54 AM,46.0,39.9,79,29.98,10.0,East,9.2,-,N/A,,Overcast,100,2012-10-03 11:54:00
4:54 AM,44.1,39.9,85,29.97,10.0,East,5.8,-,N/A,,Overcast,90,2012-10-03 12:54:00
5:54 AM,42.1,39.0,89,29.94,10.0,ENE,8.1,-,N/A,,Overcast,70,2012-10-03 13:54:00
6:54 AM,45.0,39.9,82,29.93,10.0,East,9.2,-,N/A,,Overcast,100,2012-10-03 14:54:00
7:54 AM,46.9,39.9,77,29.90,10.0,East,8.1,-,N/A,,Overcast,100,2012-10-03 15:54:00
8:54 AM,48.9,39.9,71,29.86,10.0,East,11.5,-,N/A,,Overcast,100,2012-10-03 16:54:00
9:54 AM,50.0,39.9,68,29.82,10.0,East,18.4,25.3,0.00,Rain,Light Rain,90,2012-10-03 17:54:00
10:54 AM,48.9,43.0,80,29.80,10.0,East,18.4,25.3,0.00,Rain,Light Rain,100,2012-10-03 18:54:00
11:54 AM,48.0,44.1,86,29.80,10.0,ESE,20.7,29.9,0.03,Rain,Light Rain,110,2012-10-03 19:54:00
12:54 PM,48.9,44.1,83,29.74,10.0,East,24.2,35.7,0.02,Rain,Light Rain,90,2012-10-03 20:54:00
1:54 PM,50.0,45.0,83,29.70,10.0,East,19.6,29.9,0.03,,Overcast,100,2012-10-03 21:54:00
2:54 PM,52.0,44.1,74,29.68,10.0,ESE,16.1,31.1,N/A,,Overcast,110,2012-10-03 22:54:00
3:54 PM,51.1,46.0,83,29.66,10.0,SE,16.1,-,0.05,,Overcast,130,2012-10-03 23:54:00
4:54 PM,54.0,46.0,75,29.63,10.0,ESE,17.3,25.3,N/A,,Scattered Clouds,110,2012-10-04 00:54:00
5:54 PM,55.0,46.0,72,29.62,10.0,East,13.8,21.9,N/A,,Scattered Clouds,90,2012-10-04 01:54:00
6:54 PM,55.0,46.0,72,29.60,10.0,ESE,13.8,-,N/A,,Mostly Cloudy,120,2012-10-04 02:54:00
7:54 PM,55.0,46.0,72,29.59,10.0,ESE,11.5,-,N/A,,Mostly Cloudy,120,2012-10-04 03:54:00
8:54 PM,57.0,46.9,69,29.59,10.0,SE,17.3,28.8,N/A,,Mostly Cloudy,140,2012-10-04 04:54:00
9:54 PM,57.9,46.0,65,29.57,10.0,SE,26.5,35.7,N/A,,Mostly Cloudy,130,2012-10-04 05:54:00
10:54 PM,57.9,46.0,65,29.57,10.0,SE,23.0,38.0,N/A,,Mostly Cloudy,130,2012-10-04 06:54:00
11:54 PM,57.9,46.0,65,29.57,10.0,SE,17.3,26.5,N/A,,Mostly Cloudy,130,2012-10-04 07:54:00